When you browse on this site, cookies collect data to enhance your experience and personalize the content and advertising you see.
Visit our Privacy Policy to learn more. By continuing to use the site, you agree to this use of cookies and data.
  • En España
  • Lista de países
  • Para 7 días
  • Temperatura del agua
  • El tiempo en el mapa
  • Informadores
  • user-avatar
    Iniciar sesión

    Tiempo cada hora Saurimo

    Hoy, 18 Octubre, Viernes

    Tiempo Temperatura Precipitaciones Viento Presión Humedad
    00:00 +20°C° 0 mm 1 mps 670 mmHg 92%
    01:00 +20°C° 0 mm 1 mps 670 mmHg 96%
    02:00 +18°C° 0 mm 0 mps 669 mmHg 96%
    03:00 +18°C° 0 mm 0 mps 669 mmHg 96%
    04:00 +18°C° 0 mm 0 mps 669 mmHg 96%
    05:00 +19°C° 0 mm 0 mps 670 mmHg 93%
    06:00 +22°C° 0 mm 1 mps 670 mmHg 89%
    07:00 +23°C° 0 mm 1 mps 671 mmHg 85%
    08:00 +24°C° 0.2 mm 0 mps 672 mmHg 76%
    09:00 +27°C° 0.2 mm 0 mps 672 mmHg 67%
    10:00 +30°C° 0.2 mm 0 mps 672 mmHg 58%
    11:00 +32°C° 0.1 mm 1 mps 671 mmHg 52%
    12:00 +32°C° 0.1 mm 1 mps 671 mmHg 46%
    13:00 +32°C° 0.1 mm 2 mps 670 mmHg 41%
    14:00 +31°C° 0 mm 1 mps 669 mmHg 44%
    15:00 +31°C° 0 mm 1 mps 668 mmHg 48%
    16:00 +30°C° 0 mm 1 mps 668 mmHg 52%
    17:00 +28°C° 0 mm 1 mps 668 mmHg 58%
    18:00 +26°C° 0 mm 1 mps 668 mmHg 64%
    19:00 +24°C° 0 mm 1 mps 669 mmHg 70%
    20:00 +23°C° 0 mm 1 mps 669 mmHg 73%
    21:00 +23°C° 0 mm 1 mps 669 mmHg 76%
    22:00 +22°C° 0 mm 1 mps 669 mmHg 79%
    23:00 +22°C° 0 mm 1 mps 669 mmHg 82%

    Mañana, 19 Octubre, Sábado

    Tiempo Temperatura Precipitaciones Viento Presión Humedad
    00:00 +21°C° 0 mm 1 mps 669 mmHg 86%
    01:00 +20°C° 0 mm 1 mps 668 mmHg 89%
    02:00 +20°C° 0 mm 1 mps 668 mmHg 91%
    03:00 +20°C° 0 mm 1 mps 668 mmHg 93%
    04:00 +19°C° 0 mm 1 mps 668 mmHg 96%
    05:00 +21°C° 0 mm 1 mps 669 mmHg 90%
    06:00 +22°C° 0 mm 1 mps 670 mmHg 84%
    07:00 +24°C° 0 mm 1 mps 671 mmHg 79%
    08:00 +26°C° 0 mm 1 mps 671 mmHg 71%
    09:00 +28°C° 0 mm 1 mps 671 mmHg 64%
    10:00 +30°C° 0 mm 2 mps 671 mmHg 56%
    11:00 +31°C° 0 mm 1 mps 671 mmHg 52%
    12:00 +32°C° 0 mm 1 mps 670 mmHg 48%
    13:00 +33°C° 0 mm 1 mps 670 mmHg 44%
    14:00 +32°C° 0 mm 1 mps 669 mmHg 46%
    15:00 +31°C° 0 mm 1 mps 669 mmHg 48%
    16:00 +31°C° 0 mm 1 mps 668 mmHg 50%
    17:00 +28°C° 0 mm 1 mps 668 mmHg 58%
    18:00 +26°C° 0 mm 1 mps 669 mmHg 66%
    19:00 +24°C° 0 mm 2 mps 669 mmHg 74%
    20:00 +23°C° 0 mm 1 mps 669 mmHg 78%
    21:00 +22°C° 0 mm 1 mps 669 mmHg 82%
    22:00 +22°C° 0 mm 1 mps 669 mmHg 86%
    23:00 +21°C° 0 mm 1 mps 669 mmHg 88%

    Pasado mañana, 20 Octubre, Domingo

    Tiempo Temperatura Precipitaciones Viento Presión Humedad
    00:00 +21°C° 0 mm 1 mps 669 mmHg 90%
    01:00 +20°C° 0 mm 1 mps 668 mmHg 92%
    02:00 +20°C° 0 mm 1 mps 668 mmHg 93%
    03:00 +20°C° 0 mm 1 mps 668 mmHg 94%
    04:00 +19°C° 0 mm 1 mps 668 mmHg 95%
    05:00 +21°C° 0 mm 1 mps 669 mmHg 89%
    06:00 +22°C° 0 mm 1 mps 670 mmHg 83%
    07:00 +23°C° 0 mm 1 mps 671 mmHg 77%
    08:00 +26°C° 0 mm 1 mps 671 mmHg 69%
    09:00 +28°C° 0 mm 1 mps 672 mmHg 61%
    10:00 +30°C° 0 mm 1 mps 672 mmHg 53%
    11:00 +32°C° 0 mm 1 mps 671 mmHg 49%
    12:00 +34°C° 0 mm 1 mps 671 mmHg 46%
    13:00 +33°C° 0 mm 0 mps 670 mmHg 42%
    14:00 +32°C° 0 mm 0 mps 670 mmHg 44%
    15:00 +33°C° 0 mm 1 mps 669 mmHg 46%
    16:00 +31°C° 0 mm 1 mps 668 mmHg 48%
    17:00 +28°C° 0.7 mm 2 mps 668 mmHg 61%
    18:00 +25°C° 0.7 mm 2 mps 668 mmHg 74%
    19:00 +21°C° 0.7 mm 3 mps 668 mmHg 87%
    20:00 +21°C° 0.2 mm 3 mps 669 mmHg 85%
    21:00 +21°C° 0.2 mm 2 mps 669 mmHg 82%
    22:00 +22°C° 0.2 mm 1 mps 669 mmHg 80%
    23:00 +21°C° 0 mm 1 mps 669 mmHg 84%

    21 Octubre, Lunes

    Tiempo Temperatura Precipitaciones Viento Presión Humedad
    00:00 +20°C° 0 mm 1 mps 668 mmHg 88%
    01:00 +20°C° 0 mm 1 mps 668 mmHg 91%
    02:00 +20°C° 0 mm 1 mps 668 mmHg 93%
    03:00 +20°C° 0 mm 1 mps 668 mmHg 95%
    04:00 +20°C° 0 mm 1 mps 668 mmHg 96%
    05:00 +20°C° 0 mm 1 mps 669 mmHg 93%
    06:00 +20°C° 0 mm 2 mps 670 mmHg 90%
    07:00 +21°C° 0 mm 2 mps 670 mmHg 87%
    08:00 +24°C° 0 mm 2 mps 671 mmHg 78%
    09:00 +26°C° 0 mm 2 mps 671 mmHg 69%
    10:00 +29°C° 0 mm 2 mps 671 mmHg 61%
    11:00 +30°C° 0.1 mm 2 mps 671 mmHg 57%
    12:00 +31°C° 0.1 mm 1 mps 670 mmHg 53%
    13:00 +33°C° 0.1 mm 1 mps 670 mmHg 50%
    14:00 +32°C° 0.2 mm 1 mps 669 mmHg 54%
    15:00 +30°C° 0.2 mm 1 mps 668 mmHg 58%
    16:00 +29°C° 0.2 mm 1 mps 667 mmHg 63%
    17:00 +27°C° 0.1 mm 1 mps 668 mmHg 69%
    18:00 +25°C° 0.1 mm 1 mps 668 mmHg 76%
    19:00 +23°C° 0.1 mm 2 mps 668 mmHg 83%
    20:00 +23°C° 0.1 mm 2 mps 669 mmHg 86%
    21:00 +22°C° 0.1 mm 1 mps 669 mmHg 88%
    22:00 +22°C° 0.1 mm 1 mps 669 mmHg 91%
    23:00 +21°C° 0.4 mm 1 mps 669 mmHg 93%

    22 Octubre, Martes

    Tiempo Temperatura Precipitaciones Viento Presión Humedad
    00:00 +21°C° 0.4 mm 1 mps 668 mmHg 95%
    01:00 +20°C° 0.4 mm 1 mps 668 mmHg 96%
    02:00 +20°C° 0 mm 1 mps 668 mmHg 96%
    03:00 +20°C° 0 mm 1 mps 668 mmHg 96%
    04:00 +20°C° 0 mm 1 mps 668 mmHg 96%
    05:00 +20°C° 0 mm 2 mps 668 mmHg 93%
    06:00 +21°C° 0 mm 2 mps 669 mmHg 90%
    07:00 +21°C° 0 mm 3 mps 669 mmHg 87%
    08:00 +24°C° 0 mm 3 mps 670 mmHg 79%
    09:00 +26°C° 0 mm 3 mps 670 mmHg 70%
    10:00 +29°C° 0 mm 3 mps 670 mmHg 62%
    11:00 +29°C° 0 mm 3 mps 670 mmHg 59%
    12:00 +30°C° 0 mm 3 mps 669 mmHg 56%
    13:00 +31°C° 0 mm 3 mps 668 mmHg 54%
    14:00 +29°C° 3 mm 2 mps 668 mmHg 64%
    15:00 +27°C° 3 mm 2 mps 667 mmHg 73%
    16:00 +25°C° 3 mm 1 mps 666 mmHg 83%
    17:00 +24°C° 0.5 mm 1 mps 666 mmHg 86%
    18:00 +23°C° 0.5 mm 2 mps 667 mmHg 88%
    19:00 +21°C° 0.5 mm 2 mps 667 mmHg 91%
    20:00 +20°C° 0.1 mm 2 mps 667 mmHg 90%
    21:00 +21°C° 0.1 mm 1 mps 668 mmHg 90%
    22:00 +21°C° 0.1 mm 1 mps 669 mmHg 90%
    23:00 +21°C° 0.2 mm 1 mps 668 mmHg 91%

    23 Octubre, Miércoles

    Tiempo Temperatura Precipitaciones Viento Presión Humedad
    00:00 +21°C° 0.2 mm 1 mps 668 mmHg 92%
    01:00 +19°C° 0.2 mm 2 mps 668 mmHg 93%
    02:00 +19°C° 0.1 mm 2 mps 668 mmHg 94%
    03:00 +20°C° 0.1 mm 2 mps 668 mmHg 94%
    04:00 +20°C° 0.1 mm 2 mps 668 mmHg 95%
    05:00 +20°C° 0 mm 2 mps 668 mmHg 93%
    06:00 +20°C° 0 mm 2 mps 669 mmHg 92%
    07:00 +21°C° 0 mm 2 mps 669 mmHg 90%
    08:00 +24°C° 0 mm 2 mps 670 mmHg 79%
    09:00 +26°C° 0 mm 2 mps 670 mmHg 69%
    10:00 +28°C° 0 mm 2 mps 670 mmHg 58%
    11:00 +28°C° 0 mm 2 mps 669 mmHg 57%
    12:00 +28°C° 0 mm 2 mps 669 mmHg 57%
    13:00 +28°C° 0 mm 1 mps 668 mmHg 57%
    14:00 +29°C° 0 mm 1 mps 668 mmHg 57%
    15:00 +29°C° 0 mm 1 mps 667 mmHg 57%
    16:00 +29°C° 0 mm 1 mps 667 mmHg 57%
    17:00 +27°C° 0 mm 1 mps 667 mmHg 66%
    18:00 +25°C° 0 mm 1 mps 667 mmHg 74%
    19:00 +21°C° 0 mm 2 mps 667 mmHg 83%
    20:00 +22°C° 0 mm 1 mps 667 mmHg 85%
    21:00 +21°C° 0 mm 1 mps 668 mmHg 88%
    22:00 +18°C° 0 mm 0 mps 668 mmHg 91%
    23:00 +18°C° 0 mm 0 mps 668 mmHg 91%
    Mostrar más